Location: Austin
(30.3000°N, 97.7500°W)
Time: 06:28:19
(UTC-06:00)

CENTAUR R/B - Pass Details

Date: 03 March 2026
Orbit: 628 x 1553 km, 63.4° (Epoch: 6 March)

Event Time Altitude Azimuth Distance (km) Brightness Sun altitude
Rises 19:07:35 0° 201° (SSW) 2,991 5.4 -8.6°
Reaches altitude 10° 19:09:43 10° 198° (SSW) 2,145 4.6 -9.1°
Maximum altitude 19:14:31 69° 115° (ESE) 839 2.0 -10.1°
Drops below altitude 10° 19:20:26 10° 34° (NE) 2,627 4.4 -11.4°
Sets 19:23:17 0° 32° (NNE) 3,726 5.2 -12.0°
